Regional Weather Roundup
Issued by NWS

Home | Current Version | Previous Version | Text Only | Print | Product List | Glossary On
Versions: 1 2 3 4 5 6 7 8 9 10 11 12 13 14 15 16 17 18 19 20 21 22 23 24 25 26 27 28 29 30 31 32 33 34 35 36 37 38 39 40 41 42 43 44 45 46 47 48 49 50
000
ASUS44 KEWX 300502
RWRTX
SOUTH TEXAS REGIONAL WEATHER ROUNDUP
NATIONAL WEATHER SERVICE AUSTIN/SAN ANTONIO TX
1200 AM CDT SAT AUG 30 2014

NOTE: "FAIR" INDICATED FEW OR NO CLOUDS BELOW 12,000 FEET WITH NO
SIGNIFICANT WEATHER AND/OR OBSTRUCTIONS TO VISIBILITY.

* - THESE STATIONS ARE NOT NWS OR FAA STATIONS...AND ARE NOT SUBJECT
    TO NWS AND FAA QUALITY CONTROL.

TXZ171-172-183>190-300600-
TEXAS HILL COUNTRY AND EDWARDS PLATEAU

CITY           SKY/WX    TMP DP  RH WIND       PRES   REMARKS
JUNCTION       PTCLDY    78  69  73 SE3       29.96R
*LLANO         CLEAR     79  70  73 CALM      29.97S
BURNET         CLEAR     76  70  82 SE3       29.97R
*HORSESHOE BAY CLEAR     75  69  82 CALM      29.94S
*KERRVILLE     PTCLDY    77  70  81 E7        29.96R
*FREDERICKSBRG CLEAR     76  66  71 E3        29.97S
*ROCKSPRINGS   PTCLDY    81  64  57 CALM      30.00R
*BOERNE STAGE  PTCLDY    77  66  69 E7        29.96S
*CASTROVILLE   CLEAR     82  66  57 E7        29.93R
HONDO          PTCLDY    82  68  62 E8        29.93R
*UVALDE        PTCLDY    85  68  58 E5        29.91R
DEL RIO        CLOUDY    90  66  45 E12       29.87R HX  92
LAUGHLIN AFB   NOT AVBL
CARRIZO SPRGS  CLEAR     82  70  65 SE9G18    29.87R
$$

TXZ173-191>194-202-209-217>225-228-300600-
CENTRAL AND SOUTH CENTRAL TEXAS

CITY           SKY/WX    TMP DP  RH WIND       PRES   REMARKS
GEORGETOWN     PTCLDY    75  72  88 CALM      29.95S
AUSTIN/BERGSTM PTCLDY    76  72  87 SE5       29.91F
AUSTIN/MABRY   PTCLDY    78  72  81 SE3       29.93S
*AUSTIN/EXEC   PTCLDY    73  72  94 SE3       29.92S
*LAGO VISTA    PTCLDY    77  70  78 SE5       29.95S
SAN MARCOS     PTCLDY    73  66  78 NE3       29.94S
NEW BRAUNFELS  PTCLDY    77  71  82 E3        29.91S
RANDOLPH AFB   CLEAR     80  70  73 E7        29.93R
PT SAN ANTONIO CLEAR     83  71  66 E10       29.90R
SAN ANTONIO    PTCLDY    82  71  69 E13       29.93R
STINSON FIELD  CLEAR     82  71  69 E8        29.90R
*PLEASANTON    CLEAR     81  69  67 E5        29.90S
*LA GRANGE     CLEAR     79  74  86 SE6       29.91S
*GIDDINGS      CLEAR     76  72  87 SE5       29.97R
*GONZALES      PTCLDY    79  74  84 E6        29.91S
$$

TXZ163>164-176>182-195>201-210>213-226-227-235-300600-
SOUTHEAST TEXAS

CITY           SKY/WX    TMP DP  RH WIND       PRES   REMARKS
COLLEGE STN    CLEAR     77  71  82 SE7       29.93S
*BRYAN         CLEAR    N/A N/A N/A SE6       29.93R
*CALDWELL      CLEAR     75  75 100 CALM      29.96R
*CROCKETT      CLEAR     79  75  89 CALM      29.98S
*BRENHAM       CLEAR     76  73  88 SE5       29.93F
HUNTSVILLE     CLOUDY    77  72  84 CALM      29.95R
CONROE         CLOUDY    75  71  87 CALM      29.94R
HOUSTON BUSH   MOCLDY    75  73  94 E8        29.92F
HOUSTON HOBBY  MOCLDY    79  74  84 E9        29.90F
*HOUSTON SW AP PTCLDY    76  76 100 NE3       29.91F
PEARLAND       MOCLDY    78  74  87 E7        29.92S
HOUSTON HOOKS  CLOUDY    77  72  84 E3        29.93R
ELLINGTON FLD  MOCLDY    77  75  94 E7        29.92F
SUGAR LAND     PTCLDY    78  74  87 E7        29.92R
*HOUSTON EXEC  PTCLDY    73  73 100 NE5       29.94R
*CLEVELAND MUN MOCLDY    74  73  96 CALM      29.95S
*WHARTON       CLEAR     75  73  93 CALM      29.93R
$$

TXZ214>216-236>238-300600-
THE UPPER TEXAS COAST

CITY           SKY/WX    TMP DP  RH WIND       PRES   REMARKS
*ORANGE        RAIN      76  76 100 E5        29.96R
PORT ARTHUR    LGT RAIN  78  75  90 E9        29.93S
GALVESTON      CLOUDY    82  77  84 SE14      29.91R HX  90
ANGLETON       PTCLDY    75  73  93 CALM      29.90S
*BAY CITY      CLEAR     77  77 100 NE3       29.91R
PALACIOS       CLEAR     79  74  84 NE5       29.89S
$$

TXZ229>234-239>247-300600-
TEXAS COASTAL BEND AND RIO GRANDE PLAINS

CITY           SKY/WX    TMP DP  RH WIND       PRES   REMARKS
VICTORIA       CLEAR     79  75  87 E6        29.91R
*BEEVILLE      CLEAR     79  74  84 CALM      29.90R
ROCKPORT       MOCLDY    83  76  79 SE10      29.88R HX  91
*PORT ARANSAS  CLEAR     82  76  82 SE10      29.87S
*PORT LAVACA   MOCLDY    79  75  86 E7        29.89R
*INGLESIDE     MOCLDY    83  75  77 SE8G16    29.87S HX  91
CORPUS CHRISTI MOCLDY    79  76  90 SE7       29.87R
CORPUS NAS     MOCLDY    83  78  85 SE13      29.87R HX  93
*ROBSTOWN      MOCLDY    81  76  84 SE5       29.87S
ALICE          MOCLDY    77  75  93 SE6       29.87R
KINGSVILLE NAS MOCLDY    79  78  97 SE7       29.87S
COTULLA        CLEAR     83  72  69 SE13      29.89R
*FAITH RANCH   CLEAR     84  70  61 SE9G16    29.86S
LAREDO         CLEAR     83  73  71 SE14      29.90R
$$

TXZ248>255-300600-
DEEP SOUTH TEXAS

CITY           SKY/WX    TMP DP  RH WIND       PRES   REMARKS
BROWNSVILLE    CLOUDY    82  79  90 E3        29.87R HX  92
PORT ISABEL    MOCLDY    84  79  85 E7        29.87R HX  96
*SOUTH PADRE   CLOUDY    82  81  94 E8        29.87R HX  95
HARLINGEN      CLOUDY    80  79  96 E5        29.87R
*HEBBRONVILLE  MOCLDY    79  70  74 E10       29.90R
MCALLEN        MOCLDY    78  76  93 E7        29.88R
*WESLACO       NOT AVBL
FALFURRIAS     MOCLDY    71  67  89 CALM      29.88R
EDINBURG       MOCLDY    79  74  84 CALM      29.88R
*ZAPATA        MOCLDY    81  72  73 E9        29.87S
$$

TXZ213>215-236>238-242>244-246-247-251-254-255-300600-
CMAN STATIONS

STATION/POSITION TIME  TEMP    WIND        PRES    WAVE
                       AIR SEA DIR/SP/G            HT/PER
                 (UTC) (F)     (DEG/KT/KT) (MB)    (FT/S)
SABINE PASS      0400   81 84  130/ 14/ 17 1013.4
SEA RIM ST PARK  0400   81     130/ 16/ 19 1013.6
NORTH JETTY/GLS  0400   80 83  140/ 20/ 24   N/A
EAGLE POINT      0400   80 83  130/ 17/ 20 1012.7
MORGANS POINT    0400   78     110/ 13/ 15 1013.0
MISSION/ARANSAS  0400   82     120/ 11     1012.0
PORT O`CONNOR    0400          100/ 10/ 12   N/A
PORT ARANSAS     0400   83 85  110/ 16/ 17 1011.9
MALAQUITE BEACH  0400   83 84  120/ 14/ 15 1010.7
BAFFIN BAY       0400   83 82  130/ 10/ 13 1011.4
PORT ISABEL      0400   82 82  100/  5/ 10 1011.6
$$

GMZ080-GMZ150>470-300600-
OFFSHORE BUOY REPORTS

STATION/POSITION TIME  TEMP    WIND        PRES    WAVE
                       AIR SEA DIR/SP/G            HT/PER
                 (UTC) (F)     (DEG/KT/KT) (MB)    (FT/S)
20 E GALVESTON   0500   82 85  120/ 17/ 19 1011.9    5/ 6
90 E PT ARANSAS  0500   84 86  140/ 14/ 16 1011.7    4/ 7
35 NE PT MANSFLD 0400   83 85  120/ 14/ 16 1010.5    4/ 8
200 E PT ISABEL  0400   85 85  140/ 14/ 17 1012.0    4/ 6
$$



USA.gov is the U.S. government's official web portal to all federal, state and local government web resources and services.